TimeEDT,TemperatureF,Dew PointF,Humidity,Sea Level PressureIn,VisibilityMPH,Wind Direction,Wind SpeedMPH,Gust SpeedMPH,PrecipitationIn,Events,Conditions,WindDirDegrees,DateUTC
12:51 AM,46.0,39.9,79,29.68,10.0,SW,6.9,-,0.00,,Overcast,220,2013-04-01 04:51:00
1:51 AM,45.0,39.0,80,29.67,10.0,SW,9.2,-,N/A,,Overcast,220,2013-04-01 05:51:00
2:51 AM,45.0,37.9,76,29.67,10.0,WSW,17.3,24.2,N/A,,Mostly Cloudy,240,2013-04-01 06:51:00
3:08 AM,44.6,37.4,76,29.66,10.0,WSW,10.4,-,N/A,,Mostly Cloudy,240,2013-04-01 07:08:00
3:51 AM,45.0,37.0,74,29.69,10.0,West,13.8,-,N/A,,Overcast,280,2013-04-01 07:51:00
4:51 AM,41.0,33.1,73,29.72,10.0,WNW,9.2,-,N/A,,Mostly Cloudy,290,2013-04-01 08:51:00
5:29 AM,39.2,28.4,65,29.72,10.0,WNW,18.4,25.3,N/A,,Mostly Cloudy,300,2013-04-01 09:29:00
5:51 AM,37.9,26.1,62,29.76,10.0,WNW,13.8,-,N/A,,Overcast,290,2013-04-01 09:51:00
6:51 AM,36.0,28.0,73,29.80,10.0,NW,15.0,20.7,N/A,,Mostly Cloudy,310,2013-04-01 10:51:00
7:28 AM,35.6,28.4,75,29.80,10.0,WNW,6.9,-,N/A,,Overcast,290,2013-04-01 11:28:00
7:51 AM,35.1,30.0,82,29.83,2.5,NW,11.5,-,0.00,Snow,Light Snow,320,2013-04-01 11:51:00
8:27 AM,33.8,28.4,81,29.84,1.0,NNW,15.0,-,0.00,Snow,Light Snow,330,2013-04-01 12:27:00
8:40 AM,30.2,26.6,86,29.85,0.8,NW,16.1,-,0.00,Snow,Light Snow,320,2013-04-01 12:40:00
8:51 AM,30.9,26.1,82,29.88,1.2,NW,13.8,-,0.00,Snow,Light Snow,320,2013-04-01 12:51:00
9:13 AM,32.0,26.6,80,29.86,0.8,NNW,16.1,-,0.00,Snow,Light Snow,330,2013-04-01 13:13:00
9:35 AM,30.2,26.6,86,29.87,1.2,NNW,17.3,-,0.00,Snow,Light Snow,330,2013-04-01 13:35:00
9:51 AM,30.0,26.1,85,29.90,2.5,NNW,16.1,23.0,N/A,Snow,Light Snow,330,2013-04-01 13:51:00
10:03 AM,28.4,24.8,86,29.88,9.0,NNW,17.3,24.2,N/A,Snow,Light Snow,340,2013-04-01 14:03:00
10:42 AM,32.0,24.8,75,29.90,10.0,WNW,17.3,24.2,0.00,,Mostly Cloudy,300,2013-04-01 14:42:00
10:51 AM,33.1,23.0,66,29.93,10.0,NW,17.3,26.5,N/A,,Mostly Cloudy,310,2013-04-01 14:51:00
11:51 AM,35.1,21.0,57,29.95,10.0,NW,18.4,-,N/A,,Mostly Cloudy,310,2013-04-01 15:51:00
12:51 PM,35.1,17.1,48,29.96,10.0,West,15.0,23.0,N/A,,Mostly Cloudy,280,2013-04-01 16:51:00
1:51 PM,37.0,12.9,37,29.96,10.0,WNW,13.8,24.2,N/A,,Mostly Cloudy,300,2013-04-01 17:51:00
2:51 PM,37.9,12.0,35,29.96,10.0,WNW,17.3,25.3,N/A,,Mostly Cloudy,300,2013-04-01 18:51:00
3:51 PM,37.9,12.0,35,29.97,10.0,West,16.1,26.5,N/A,,Mostly Cloudy,270,2013-04-01 19:51:00
4:51 PM,36.0,10.9,36,29.99,10.0,NW,12.7,24.2,N/A,,Scattered Clouds,310,2013-04-01 20:51:00
5:51 PM,37.0,12.0,36,29.98,10.0,NW,11.5,20.7,N/A,,Scattered Clouds,310,2013-04-01 21:51:00
6:51 PM,35.1,12.0,39,29.99,10.0,WNW,13.8,20.7,N/A,,Scattered Clouds,300,2013-04-01 22:51:00
7:51 PM,33.1,10.9,40,30.01,10.0,WNW,12.7,-,N/A,,Scattered Clouds,290,2013-04-01 23:51:00
8:51 PM,32.0,10.9,42,30.02,10.0,WNW,6.9,-,N/A,,Overcast,300,2013-04-02 00:51:00
9:51 PM,32.0,12.0,44,30.04,10.0,WNW,11.5,-,N/A,,Scattered Clouds,290,2013-04-02 01:51:00
10:51 PM,30.9,18.0,59,30.05,10.0,NW,11.5,-,N/A,,Overcast,320,2013-04-02 02:51:00
11:51 PM,30.9,16.0,54,30.05,10.0,NW,13.8,23.0,N/A,,Overcast,310,2013-04-02 03:51:00